Time,TemperatureF,DewpointF,PressureIn,WindDirection,WindDirectionDegrees,WindSpeedMPH,WindSpeedGustMPH,Humidity,HourlyPrecipIn,Conditions,Clouds,dailyrainin,SoftwareType,DateUTC
2013-01-26 00:03:00,18.0,15.0,30.07,WNW,282,1.0,4.0,87,0.00,,,0.00,,2013-01-26 05:03:00,
2013-01-26 00:12:00,18.0,15.0,30.07,WNW,282,1.0,4.0,87,0.00,,,0.00,,2013-01-26 05:12:00,
2013-01-26 00:23:00,18.0,15.0,30.07,SW,223,3.0,4.0,87,0.00,,,0.00,,2013-01-26 05:23:00,
2013-01-26 00:33:00,18.0,15.0,30.07,SW,223,3.0,3.0,88,0.00,,,0.00,,2013-01-26 05:33:00,
2013-01-26 00:42:00,18.0,15.0,30.07,SW,223,3.0,3.0,88,0.00,,,0.00,,2013-01-26 05:42:00,
2013-01-26 00:52:00,18.0,15.0,30.07,SSW,213,0.0,4.0,87,0.00,,,0.00,,2013-01-26 05:52:00,
2013-01-26 01:03:00,19.0,16.0,30.07,South,173,0.0,3.0,88,0.00,,,0.00,,2013-01-26 06:03:00,
2013-01-26 01:12:00,19.0,16.0,30.07,South,173,0.0,3.0,88,0.00,,,0.00,,2013-01-26 06:12:00,
2013-01-26 01:21:00,19.0,16.0,30.07,South,171,0.0,3.0,88,0.00,,,0.00,,2013-01-26 06:21:00,
2013-01-26 01:32:00,19.0,16.0,30.07,WSW,250,0.0,3.0,88,0.00,,,0.00,,2013-01-26 06:32:00,
2013-01-26 01:42:00,19.0,16.0,30.07,WSW,250,0.0,3.0,88,0.00,,,0.00,,2013-01-26 06:42:00,
2013-01-26 01:52:00,19.0,16.0,30.07,WSW,246,1.0,4.0,88,0.00,,,0.00,,2013-01-26 06:52:00,
2013-01-26 02:02:00,19.0,16.0,30.07,SW,232,3.0,6.0,88,0.00,,,0.00,,2013-01-26 07:02:00,
2013-01-26 02:12:00,19.0,16.0,30.07,SW,232,3.0,6.0,88,0.00,,,0.00,,2013-01-26 07:12:00,
2013-01-26 02:22:00,19.0,16.0,30.07,SW,232,3.0,6.0,88,0.00,,,0.00,,2013-01-26 07:22:00,
2013-01-26 02:33:00,20.0,17.0,30.08,SW,226,2.0,5.0,88,0.00,,,0.00,,2013-01-26 07:33:00,
2013-01-26 02:42:00,20.0,17.0,30.08,SW,226,2.0,5.0,88,0.00,,,0.00,,2013-01-26 07:42:00,
2013-01-26 02:52:00,20.0,17.0,30.08,West,261,1.0,5.0,88,0.00,,,0.00,,2013-01-26 07:52:00,
2013-01-26 03:02:00,20.0,17.0,30.09,SSE,164,0.0,3.0,88,0.00,,,0.00,,2013-01-26 08:02:00,
2013-01-26 03:11:00,20.0,17.0,30.09,SSE,164,0.0,3.0,88,0.00,,,0.00,,2013-01-26 08:11:00,
2013-01-26 03:21:00,20.0,17.0,30.09,SW,233,0.0,3.0,88,0.00,,,0.00,,2013-01-26 08:21:00,
2013-01-26 03:32:00,20.0,17.0,30.09,WSW,248,1.0,3.0,88,0.00,,,0.00,,2013-01-26 08:32:00,
2013-01-26 03:42:00,20.0,17.0,30.09,WSW,248,1.0,3.0,88,0.00,,,0.00,,2013-01-26 08:42:00,
2013-01-26 03:53:00,20.0,17.0,30.09,SW,229,0.0,3.0,88,0.00,,,0.00,,2013-01-26 08:53:00,
2013-01-26 04:02:00,20.0,17.0,30.09,SW,234,1.0,3.0,89,0.00,,,0.00,,2013-01-26 09:02:00,
2013-01-26 04:11:00,20.0,17.0,30.09,SW,234,1.0,3.0,89,0.00,,,0.00,,2013-01-26 09:11:00,
2013-01-26 04:22:00,20.0,17.0,30.09,WSW,257,2.0,4.0,89,0.00,,,0.00,,2013-01-26 09:22:00,
2013-01-26 04:32:00,21.0,18.0,30.10,WSW,248,2.0,3.0,89,0.00,,,0.00,,2013-01-26 09:32:00,
2013-01-26 04:42:00,21.0,18.0,30.10,WSW,248,2.0,3.0,89,0.00,,,0.00,,2013-01-26 09:42:00,
2013-01-26 04:51:00,21.0,18.0,30.10,West,263,0.0,4.0,89,0.00,,,0.00,,2013-01-26 09:51:00,
2013-01-26 05:01:00,21.0,18.0,30.10,WSW,245,1.0,5.0,89,0.00,,,0.00,,2013-01-26 10:01:00,
2013-01-26 05:12:00,21.0,18.0,30.10,WSW,245,1.0,5.0,89,0.00,,,0.00,,2013-01-26 10:12:00,
2013-01-26 05:21:00,21.0,18.0,30.10,WSW,250,3.0,5.0,89,0.00,,,0.00,,2013-01-26 10:21:00,
2013-01-26 05:32:00,21.0,18.0,30.11,West,277,2.0,5.0,89,0.00,,,0.00,,2013-01-26 10:32:00,
2013-01-26 05:42:00,21.0,18.0,30.11,West,277,2.0,5.0,89,0.00,,,0.00,,2013-01-26 10:42:00,
2013-01-26 05:52:00,21.0,18.0,30.11,West,259,3.0,5.0,89,0.00,,,0.00,,2013-01-26 10:52:00,
2013-01-26 06:01:00,22.0,19.0,30.11,WSW,248,2.0,3.0,89,0.00,,,0.00,,2013-01-26 11:01:00,
2013-01-26 06:12:00,22.0,19.0,30.11,WSW,248,2.0,3.0,89,0.00,,,0.00,,2013-01-26 11:12:00,
2013-01-26 06:22:00,22.0,19.0,30.11,WSW,244,1.0,3.0,89,0.00,,,0.00,,2013-01-26 11:22:00,
2013-01-26 06:32:00,22.0,19.0,30.12,WSW,244,1.0,3.0,89,0.00,,,0.00,,2013-01-26 11:32:00,
2013-01-26 06:42:00,22.0,19.0,30.12,WSW,244,1.0,3.0,89,0.00,,,0.00,,2013-01-26 11:42:00,
2013-01-26 06:52:00,22.0,19.0,30.12,West,261,1.0,3.0,89,0.00,,,0.00,,2013-01-26 11:52:00,
2013-01-26 07:02:00,22.0,19.0,30.13,WSW,249,1.0,3.0,89,0.00,,,0.00,,2013-01-26 12:02:00,
2013-01-26 07:12:00,22.0,19.0,30.13,WSW,249,1.0,3.0,89,0.00,,,0.00,,2013-01-26 12:12:00,
2013-01-26 07:23:00,22.0,19.0,30.13,West,270,0.0,3.0,89,0.00,,,0.00,,2013-01-26 12:23:00,
2013-01-26 07:33:00,22.0,19.0,30.15,West,260,2.0,3.0,89,0.00,,,0.00,,2013-01-26 12:33:00,
2013-01-26 07:42:00,22.0,19.0,30.15,West,260,2.0,3.0,89,0.00,,,0.00,,2013-01-26 12:42:00,
2013-01-26 07:52:00,22.0,19.0,30.15,SW,234,2.0,3.0,89,0.00,,,0.00,,2013-01-26 12:52:00,
2013-01-26 08:04:00,22.0,19.0,30.16,West,276,0.0,3.0,89,0.00,,,0.00,,2013-01-26 13:04:00,
2013-01-26 08:12:00,22.0,19.0,30.16,West,276,0.0,3.0,89,0.00,,,0.00,,2013-01-26 13:12:00,
2013-01-26 08:22:00,22.0,19.0,30.16,SW,234,0.0,3.0,89,0.00,,,0.00,,2013-01-26 13:22:00,
2013-01-26 08:33:00,23.0,20.0,30.18,NW,311,1.0,4.0,89,0.00,,,0.00,,2013-01-26 13:33:00,
2013-01-26 08:42:00,23.0,20.0,30.18,NW,311,1.0,4.0,89,0.00,,,0.00,,2013-01-26 13:42:00,
2013-01-26 08:52:00,23.0,20.0,30.18,WSW,255,0.0,6.0,88,0.00,,,0.00,,2013-01-26 13:52:00,
2013-01-26 09:03:00,23.0,20.0,30.19,West,276,0.0,6.0,88,0.00,,,0.00,,2013-01-26 14:03:00,
2013-01-26 09:12:00,23.0,20.0,30.19,West,276,0.0,6.0,88,0.00,,,0.00,,2013-01-26 14:12:00,
2013-01-26 09:22:00,23.0,20.0,30.19,West,277,1.0,6.0,88,0.00,,,0.00,,2013-01-26 14:22:00,
2013-01-26 09:32:00,23.0,20.0,30.19,SW,221,0.0,6.0,88,0.00,,,0.00,,2013-01-26 14:32:00,
2013-01-26 09:43:00,23.0,20.0,30.19,SW,221,0.0,6.0,88,0.00,,,0.00,,2013-01-26 14:43:00,
2013-01-26 09:52:00,23.0,20.0,30.19,SSW,199,0.0,6.0,87,0.00,,,0.00,,2013-01-26 14:52:00,
2013-01-26 10:03:00,23.0,19.0,30.20,WNW,284,2.0,6.0,86,0.00,,,0.00,,2013-01-26 15:03:00,
2013-01-26 10:12:00,23.0,19.0,30.20,WNW,284,2.0,6.0,86,0.00,,,0.00,,2013-01-26 15:12:00,
2013-01-26 10:22:00,24.0,20.0,30.20,WSW,246,4.0,6.0,85,0.00,,,0.00,,2013-01-26 15:22:00,
2013-01-26 10:33:00,26.0,21.0,30.22,WNW,286,1.0,5.0,81,0.00,,,0.00,,2013-01-26 15:33:00,
2013-01-26 10:43:00,26.0,21.0,30.22,WNW,286,1.0,5.0,81,0.00,,,0.00,,2013-01-26 15:43:00,
2013-01-26 10:52:00,25.0,20.0,30.22,SSW,206,2.0,6.0,80,0.00,,,0.00,,2013-01-26 15:52:00,
2013-01-26 11:02:00,25.0,19.0,30.24,SW,219,3.0,7.0,78,0.00,,,0.00,,2013-01-26 16:02:00,
2013-01-26 11:12:00,25.0,19.0,30.24,West,277,3.0,10.0,78,0.00,,,0.00,,2013-01-26 16:12:00,
2013-01-26 11:22:00,25.0,19.0,30.24,West,277,3.0,10.0,78,0.00,,,0.00,,2013-01-26 16:22:00,
2013-01-26 11:33:00,25.0,19.0,30.25,WSW,249,2.0,10.0,78,0.00,,,0.00,,2013-01-26 16:33:00,
2013-01-26 11:42:00,25.0,19.0,30.25,WSW,249,2.0,10.0,78,0.00,,,0.00,,2013-01-26 16:42:00,
2013-01-26 11:53:00,25.0,19.0,30.25,WNW,286,1.0,10.0,78,0.00,,,0.00,,2013-01-26 16:53:00,
2013-01-26 12:03:00,25.0,19.0,30.26,West,279,1.0,7.0,77,0.00,,,0.00,,2013-01-26 17:03:00,
2013-01-26 12:13:00,25.0,19.0,30.26,West,279,1.0,7.0,77,0.00,,,0.00,,2013-01-26 17:13:00,
2013-01-26 12:22:00,25.0,19.0,30.26,NW,304,2.0,8.0,78,0.00,,,0.00,,2013-01-26 17:22:00,
2013-01-26 12:33:00,24.0,18.0,30.27,WNW,296,7.0,11.0,79,0.00,,,0.00,,2013-01-26 17:33:00,
2013-01-26 12:42:00,24.0,18.0,30.27,WNW,296,7.0,11.0,79,0.00,,,0.00,,2013-01-26 17:42:00,
2013-01-26 12:52:00,24.0,18.0,30.27,WNW,288,4.0,11.0,78,0.00,,,0.00,,2013-01-26 17:52:00,
2013-01-26 13:03:00,24.0,18.0,30.27,NE,37,2.0,10.0,78,0.00,,,0.00,,2013-01-26 18:03:00,
2013-01-26 13:12:00,24.0,18.0,30.27,NE,37,2.0,10.0,78,0.00,,,0.00,,2013-01-26 18:12:00,
2013-01-26 13:22:00,24.0,18.0,30.27,WNW,291,7.0,10.0,77,0.00,,,0.00,,2013-01-26 18:22:00,
2013-01-26 13:33:00,24.0,18.0,30.28,NE,44,6.0,9.0,77,0.00,,,0.00,,2013-01-26 18:33:00,
2013-01-26 13:42:00,24.0,18.0,30.28,NE,44,6.0,9.0,77,0.00,,,0.00,,2013-01-26 18:42:00,
2013-01-26 13:52:00,24.0,18.0,30.28,WNW,302,3.0,10.0,77,0.00,,,0.00,,2013-01-26 18:52:00,
2013-01-26 14:03:00,24.0,18.0,30.29,West,259,6.0,10.0,78,0.00,,,0.00,,2013-01-26 19:03:00,
2013-01-26 14:12:00,24.0,18.0,30.29,West,259,6.0,10.0,78,0.00,,,0.00,,2013-01-26 19:12:00,
2013-01-26 14:22:00,24.0,18.0,30.29,NW,309,3.0,10.0,76,0.00,,,0.00,,2013-01-26 19:22:00,
2013-01-26 14:33:00,24.0,18.0,30.29,NNW,336,2.0,10.0,77,0.00,,,0.00,,2013-01-26 19:33:00,
2013-01-26 14:42:00,24.0,18.0,30.29,NNW,336,2.0,10.0,77,0.00,,,0.00,,2013-01-26 19:42:00,
2013-01-26 14:52:00,24.0,18.0,30.29,WNW,293,8.0,10.0,76,0.00,,,0.00,,2013-01-26 19:52:00,
2013-01-26 15:02:00,24.0,18.0,30.30,NW,309,5.0,9.0,76,0.00,,,0.00,,2013-01-26 20:02:00,
2013-01-26 15:11:00,24.0,18.0,30.30,NW,309,5.0,9.0,76,0.00,,,0.00,,2013-01-26 20:11:00,
2013-01-26 15:22:00,24.0,18.0,30.30,West,280,3.0,10.0,76,0.00,,,0.00,,2013-01-26 20:22:00,
2013-01-26 15:32:00,24.0,17.0,30.32,WNW,290,5.0,10.0,74,0.00,,,0.00,,2013-01-26 20:32:00,
2013-01-26 15:42:00,24.0,17.0,30.32,WNW,290,5.0,10.0,74,0.00,,,0.00,,2013-01-26 20:42:00,
2013-01-26 15:52:00,24.0,17.0,30.32,NE,35,5.0,10.0,74,0.00,,,0.00,,2013-01-26 20:52:00,
2013-01-26 16:03:00,24.0,17.0,30.32,NW,307,7.0,10.0,74,0.00,,,0.00,,2013-01-26 21:03:00,
2013-01-26 16:12:00,24.0,17.0,30.32,NW,307,7.0,10.0,74,0.00,,,0.00,,2013-01-26 21:12:00,
2013-01-26 16:23:00,24.0,17.0,30.32,NW,320,7.0,10.0,73,0.00,,,0.00,,2013-01-26 21:23:00,
2013-01-26 16:32:00,24.0,17.0,30.33,NW,314,3.0,7.0,74,0.00,,,0.00,,2013-01-26 21:32:00,
2013-01-26 16:42:00,24.0,17.0,30.33,NW,314,3.0,7.0,74,0.00,,,0.00,,2013-01-26 21:42:00,
2013-01-26 16:52:00,24.0,17.0,30.33,NE,50,2.0,7.0,74,0.00,,,0.00,,2013-01-26 21:52:00,
2013-01-26 17:02:00,24.0,17.0,30.35,NW,310,3.0,9.0,74,0.00,,,0.00,,2013-01-26 22:02:00,
2013-01-26 17:12:00,24.0,17.0,30.35,NW,310,3.0,9.0,74,0.00,,,0.00,,2013-01-26 22:12:00,
2013-01-26 17:22:00,24.0,17.0,30.35,WNW,294,3.0,9.0,74,0.00,,,0.00,,2013-01-26 22:22:00,
2013-01-26 17:32:00,23.0,16.0,30.35,West,272,1.0,6.0,74,0.00,,,0.00,,2013-01-26 22:32:00,
2013-01-26 17:42:00,23.0,16.0,30.35,West,272,1.0,6.0,74,0.00,,,0.00,,2013-01-26 22:42:00,
2013-01-26 17:52:00,23.0,16.0,30.35,NNW,346,4.0,6.0,75,0.00,,,0.00,,2013-01-26 22:52:00,
2013-01-26 18:02:00,23.0,16.0,30.37,North,349,1.0,6.0,74,0.00,,,0.00,,2013-01-26 23:02:00,
2013-01-26 18:12:00,23.0,16.0,30.37,North,349,1.0,6.0,74,0.00,,,0.00,,2013-01-26 23:12:00,
2013-01-26 18:22:00,23.0,16.0,30.37,WNW,299,0.0,6.0,74,0.00,,,0.00,,2013-01-26 23:22:00,
2013-01-26 18:32:00,23.0,16.0,30.38,West,271,1.0,4.0,75,0.00,,,0.00,,2013-01-26 23:32:00,
2013-01-26 18:42:00,23.0,16.0,30.38,West,271,1.0,4.0,75,0.00,,,0.00,,2013-01-26 23:42:00,
2013-01-26 18:52:00,22.0,15.0,30.38,WSW,241,1.0,4.0,75,0.00,,,0.00,,2013-01-26 23:52:00,
2013-01-26 19:02:00,22.0,15.0,30.38,West,260,1.0,4.0,74,0.00,,,0.00,,2013-01-27 00:02:00,
2013-01-26 19:12:00,22.0,15.0,30.38,West,260,1.0,4.0,74,0.00,,,0.00,,2013-01-27 00:12:00,
2013-01-26 19:22:00,22.0,15.0,30.38,WSW,251,2.0,5.0,74,0.00,,,0.00,,2013-01-27 00:22:00,
2013-01-26 19:32:00,22.0,15.0,30.41,WNW,285,2.0,3.0,75,0.00,,,0.00,,2013-01-27 00:32:00,
2013-01-26 19:42:00,22.0,15.0,30.41,WNW,285,2.0,3.0,75,0.00,,,0.00,,2013-01-27 00:42:00,
2013-01-26 19:51:00,22.0,15.0,30.41,West,281,0.0,3.0,75,0.00,,,0.00,,2013-01-27 00:51:00,
2013-01-26 20:01:00,22.0,15.0,30.42,WSW,252,1.0,3.0,75,0.00,,,0.00,,2013-01-27 01:01:00,
2013-01-26 20:11:00,22.0,15.0,30.42,WSW,252,1.0,3.0,75,0.00,,,0.00,,2013-01-27 01:11:00,
2013-01-26 20:22:00,22.0,15.0,30.42,WSW,255,2.0,3.0,75,0.00,,,0.00,,2013-01-27 01:22:00,
2013-01-26 20:32:00,22.0,15.0,30.41,SW,225,1.0,3.0,75,0.00,,,0.00,,2013-01-27 01:32:00,
2013-01-26 20:42:00,22.0,15.0,30.41,SW,225,1.0,3.0,75,0.00,,,0.00,,2013-01-27 01:42:00,
2013-01-26 20:52:00,22.0,15.0,30.41,WSW,242,1.0,3.0,75,0.00,,,0.00,,2013-01-27 01:52:00,
2013-01-26 21:01:00,22.0,15.0,30.41,SW,225,1.0,3.0,75,0.00,,,0.00,,2013-01-27 02:01:00,
2013-01-26 21:12:00,22.0,15.0,30.41,SW,225,1.0,3.0,75,0.00,,,0.00,,2013-01-27 02:12:00,
2013-01-26 21:22:00,22.0,15.0,30.41,SW,232,1.0,3.0,75,0.00,,,0.00,,2013-01-27 02:22:00,
2013-01-26 21:32:00,22.0,16.0,30.41,SW,234,1.0,3.0,76,0.00,,,0.00,,2013-01-27 02:32:00,
2013-01-26 21:42:00,22.0,16.0,30.41,SW,234,1.0,3.0,76,0.00,,,0.00,,2013-01-27 02:42:00,
2013-01-26 21:52:00,22.0,16.0,30.41,SW,232,0.0,3.0,76,0.00,,,0.00,,2013-01-27 02:52:00,
2013-01-26 22:02:00,22.0,16.0,30.41,SW,222,1.0,3.0,76,0.00,,,0.00,,2013-01-27 03:02:00,
2013-01-26 22:11:00,22.0,16.0,30.41,SW,222,1.0,3.0,76,0.00,,,0.00,,2013-01-27 03:11:00,
2013-01-26 22:21:00,22.0,16.0,30.41,WSW,237,1.0,3.0,76,0.00,,,0.00,,2013-01-27 03:21:00,
2013-01-26 22:32:00,21.0,15.0,30.43,WSW,237,1.0,3.0,76,0.00,,,0.00,,2013-01-27 03:32:00,
2013-01-26 22:42:00,21.0,15.0,30.43,WSW,237,1.0,3.0,76,0.00,,,0.00,,2013-01-27 03:42:00,
2013-01-26 22:51:00,21.0,15.0,30.43,SW,224,3.0,3.0,76,0.00,,,0.00,,2013-01-27 03:51:00,
2013-01-26 23:02:00,20.0,14.0,30.43,SW,223,1.0,3.0,77,0.00,,,0.00,,2013-01-27 04:02:00,
2013-01-26 23:12:00,20.0,14.0,30.43,SW,223,1.0,3.0,77,0.00,,,0.00,,2013-01-27 04:12:00,
2013-01-26 23:21:00,20.0,14.0,30.43,SW,230,2.0,3.0,77,0.00,,,0.00,,2013-01-27 04:21:00,
2013-01-26 23:32:00,20.0,14.0,30.44,ESE,111,0.0,3.0,78,0.00,,,0.00,,2013-01-27 04:32:00,
2013-01-26 23:42:00,20.0,14.0,30.44,ESE,111,0.0,3.0,78,0.00,,,0.00,,2013-01-27 04:42:00,
2013-01-26 23:51:00,20.0,14.0,30.44,SSW,200,0.0,3.0,78,0.00,,,0.00,,2013-01-27 04:51:00,